Date String (YYYY-MM-DD hh:mm:ss) UTC,Instrument flags,absolute air pressure of the measurement (hPa),sample flow rate (lpm),inlet stack bypass flow (lpm),air temperature of the measurement (°C),ambient temperature measured by the external sensor (°C),aerosol sample conditioner tube jacket temperature (°C),OPC LED temperature (°C),internal box temperature (°C),relative humidity of the measurement (%),span deviation,mass concentration of particles derived from Lorenz-Mie calculation of OPC scattering (μg/m³),mass concentration of particles derived from Lorenz-Mie calculation of OPC scattering (μg/m³),mass concentration of particles derived from Lorenz-Mie calculation of OPC scattering (μg/m³)
DateTimeUTC,F1_M11,P_M11,Q1_M11,Q2_M11,T1_M11,T2_M11,T3_M11,T4_M11,T5_M11,U1_M11,ZSPAN_M11,X0_M11,X2_M11,X1_M11
2024-03-27 02:00:00,SystemResetWarning,0822.0,5.00,000.00,020.4,019.4,000.0,029.2,022.1,17.6,0000.6,0013.42,0009.97,0009.51
2024-03-27 02:01:00,SystemResetWarning,0822.0,4.99,000.00,020.4,019.3,000.0,029.1,022.1,17.6,0000.7,0013.38,0010.01,0009.53
2024-03-27 02:02:00,SystemResetWarning,0822.0,5.00,000.00,020.3,019.3,000.0,029.1,022.1,17.6,0000.5,0013.65,0010.00,0009.52
2024-03-27 02:03:00,SystemResetWarning,0821.9,5.01,000.00,020.3,019.3,000.0,029.1,022.1,17.7,0000.7,0014.04,0009.98,0009.48
2024-03-27 02:04:00,SystemResetWarning,0822.0,5.01,000.00,020.3,019.3,000.0,029.1,022.1,17.7,0000.5,0013.73,0009.92,0009.45
2024-03-27 02:05:00,SystemResetWarning,0821.9,5.00,000.00,020.3,019.3,000.0,029.1,022.0,17.5,0000.5,0013.51,0009.84,0009.41
2024-03-27 02:06:00,SystemResetWarning,0821.9,4.99,000.00,020.3,019.3,000.0,029.1,022.0,17.6,0000.6,0013.79,0009.83,0009.38
2024-03-27 02:07:00,SystemResetWarning,0822.0,5.00,000.00,020.3,019.3,000.0,029.0,022.0,17.4,0000.8,0014.53,0009.78,0009.34
2024-03-27 02:08:00,SystemResetWarning,0822.0,5.00,000.00,020.3,019.3,000.0,029.0,022.0,17.5,0000.7,0014.57,0009.75,0009.33
2024-03-27 02:09:00,SystemResetWarning,0822.0,5.01,000.00,020.2,019.3,000.0,029.0,022.0,17.9,0000.7,0014.43,0009.71,0009.32
2024-03-27 02:10:00,SystemResetWarning,0822.0,5.00,000.00,020.2,019.2,000.0,029.0,022.0,18.0,0001.0,0014.52,0009.75,0009.33
2024-03-27 02:11:00,SystemResetWarning,0821.9,4.99,000.00,020.2,019.2,000.0,029.0,021.9,18.0,0001.1,0015.02,0009.78,0009.34
2024-03-27 02:12:00,SystemResetWarning,0821.9,5.00,000.00,020.2,019.2,000.0,029.0,021.9,17.9,0001.0,0014.89,0009.75,0009.33
2024-03-27 02:13:00,SystemResetWarning,0821.9,4.99,000.00,020.2,019.2,000.0,028.9,021.9,17.8,0001.1,0014.76,0009.75,0009.33
2024-03-27 02:14:00,SystemResetWarning,0821.9,5.01,000.00,020.2,019.2,000.0,028.9,021.9,18.2,0001.2,0014.64,0009.73,0009.33
2024-03-27 02:15:00,SystemResetWarning,0821.9,5.00,000.00,020.2,019.2,000.0,028.9,021.9,18.2,0001.2,0014.58,0009.73,0009.34
2024-03-27 02:16:00,SystemResetWarning,0821.9,5.01,000.00,020.1,019.2,000.0,028.9,021.9,17.9,0001.3,0015.48,0009.76,0009.34
2024-03-27 02:17:00,SystemResetWarning,0822.0,5.00,000.00,020.1,019.1,000.0,028.9,021.9,17.9,0001.1,0015.91,0009.76,0009.34
2024-03-27 02:18:00,SystemResetWarning,0822.0,5.00,000.00,020.1,019.1,000.0,028.9,021.9,17.8,0001.1,0015.15,0009.78,0009.35
2024-03-27 02:19:00,SystemResetWarning,0822.0,4.99,000.00,020.1,019.1,000.0,028.9,021.9,17.8,0001.3,0015.02,0009.81,0009.36
2024-03-27 02:20:00,SystemResetWarning,0822.0,4.99,000.00,020.1,019.1,000.0,028.8,021.9,18.0,0001.3,0015.11,0009.85,0009.38
2024-03-27 02:21:00,SystemResetWarning,0822.0,5.00,000.00,020.1,019.1,000.0,028.8,021.9,18.0,0000.9,0015.44,0009.82,0009.38
2024-03-27 02:22:00,SystemResetWarning,0822.0,5.01,000.00,020.1,019.1,000.0,028.8,021.9,18.2,0000.8,0015.23,0009.84,0009.40
2024-03-27 02:23:00,SystemResetWarning,0822.1,5.00,000.00,020.1,019.1,000.0,028.8,021.8,18.5,0001.2,0015.30,0009.90,0009.44
2024-03-27 02:24:00,SystemResetWarning,0822.1,5.00,000.00,020.0,019.1,000.0,028.8,021.8,18.8,0001.5,0015.33,0009.94,0009.48
2024-03-27 02:25:00,SystemResetWarning,0822.1,5.01,000.00,020.0,019.1,000.0,028.8,021.8,18.8,0001.2,0015.26,0010.00,0009.53
2024-03-27 02:26:00,SystemResetWarning,0822.1,5.00,000.00,020.0,019.1,000.0,028.8,021.8,19.1,0001.4,0015.33,0010.09,0009.59
2024-03-27 02:27:00,SystemResetWarning,0822.1,4.99,000.00,020.0,019.1,000.0,028.8,021.8,19.3,0001.7,0014.86,0010.15,0009.64
2024-03-27 02:28:00,SystemResetWarning,0822.1,5.00,000.00,020.0,019.1,000.0,028.7,021.8,19.4,0001.8,0014.32,0010.22,0009.71
2024-03-27 02:29:00,SystemResetWarning,0822.1,4.99,000.00,020.0,019.1,000.0,028.7,021.8,19.3,0001.7,0014.68,0010.27,0009.76
2024-03-27 02:30:00,SystemResetWarning,0822.1,5.02,000.00,020.0,019.1,000.0,028.7,021.8,19.4,0001.5,0014.91,0010.28,0009.79
2024-03-27 02:31:00,SystemResetWarning,0822.1,5.02,000.00,020.0,019.1,000.0,028.7,021.8,19.4,0001.2,0015.01,0010.26,0009.82
2024-03-27 02:32:00,SystemResetWarning,0822.1,5.00,000.00,020.0,019.1,000.0,028.7,021.8,19.4,0001.3,0014.76,0010.30,0009.85
2024-03-27 02:33:00,SystemResetWarning,0822.1,4.99,000.00,020.0,019.1,000.0,028.7,021.8,19.5,0001.3,0014.61,0010.31,0009.86
2024-03-27 02:34:00,SystemResetWarning,0822.1,4.99,000.00,020.0,019.1,000.0,028.7,021.8,19.5,0001.2,0014.27,0010.29,0009.85
2024-03-27 02:35:00,SystemResetWarning,0822.1,5.00,000.00,020.0,019.1,000.0,028.7,021.8,19.3,0001.0,0014.24,0010.27,0009.83
2024-03-27 02:36:00,SystemResetWarning,0822.2,5.00,000.00,019.9,019.1,000.0,028.7,021.8,19.0,0001.2,0014.23,0010.22,0009.78
2024-03-27 02:37:00,SystemResetWarning,0822.2,5.00,000.00,019.9,019.1,000.0,028.7,021.7,18.8,0001.1,0014.70,0010.16,0009.72
2024-03-27 02:38:00,SystemResetWarning,0822.2,5.00,000.00,019.9,019.0,000.0,028.7,021.7,18.9,0000.6,0015.18,0010.13,0009.66
2024-03-27 02:39:00,SystemResetWarning,0822.2,5.00,000.00,019.9,019.0,000.0,028.6,021.7,18.8,0000.6,0015.02,0010.04,0009.59
2024-03-27 02:40:00,SystemResetWarning,0822.3,5.00,000.00,019.9,019.0,000.0,028.6,021.7,18.8,0000.8,0014.47,0009.98,0009.54
2024-03-27 02:41:00,SystemResetWarning,0822.3,5.00,000.00,019.9,019.0,000.0,028.6,021.7,18.8,0000.9,0014.65,0009.95,0009.50
2024-03-27 02:42:00,SystemResetWarning,0822.3,5.00,000.00,019.9,019.0,000.0,028.6,021.7,18.9,0001.2,0014.56,0009.95,0009.46
2024-03-27 02:43:00,SystemResetWarning,0822.3,5.00,000.00,019.9,018.9,000.0,028.6,021.7,18.9,0001.0,0014.93,0009.90,0009.41
2024-03-27 02:44:00,SystemResetWarning,0822.4,5.01,000.00,019.8,018.9,000.0,028.6,021.6,18.9,0001.0,0015.08,0009.84,0009.37
2024-03-27 02:45:00,SystemResetWarning,0822.4,5.00,000.00,019.8,018.9,000.0,028.6,021.6,18.8,0001.0,0015.13,0009.79,0009.33
2024-03-27 02:46:00,SystemResetWarning,0822.4,5.00,000.00,019.8,018.9,000.0,028.6,021.6,18.5,0001.1,0015.05,0009.74,0009.30
2024-03-27 02:47:00,SystemResetWarning,0822.4,5.00,000.00,019.8,018.8,000.0,028.5,021.6,18.3,0000.9,0014.88,0009.73,0009.27
2024-03-27 02:48:00,SystemResetWarning,0822.4,5.00,000.00,019.8,018.8,000.0,028.5,021.5,18.2,0001.1,0014.78,0009.69,0009.24
2024-03-27 02:49:00,SystemResetWarning,0822.4,5.00,000.00,019.7,018.8,000.0,028.5,021.5,18.2,0001.6,0014.21,0009.62,0009.20
2024-03-27 02:50:00,SystemResetWarning,0822.4,5.00,000.00,019.7,018.7,000.0,028.5,021.5,18.0,0001.5,0014.00,0009.58,0009.17
2024-03-27 02:51:00,SystemResetWarning,0822.4,5.00,000.00,019.7,018.7,000.0,028.5,021.5,18.1,0001.3,0014.02,0009.56,0009.12
2024-03-27 02:52:00,SystemResetWarning,0822.4,5.00,000.00,019.7,018.7,000.0,028.4,021.4,18.1,0000.9,0013.54,0009.50,0009.07
2024-03-27 02:53:00,SystemResetWarning,0822.4,5.00,000.00,019.7,018.7,000.0,028.4,021.4,18.1,0001.0,0013.64,0009.43,0009.01
2024-03-27 02:54:00,SystemResetWarning,0822.4,4.99,000.00,019.6,018.6,000.0,028.4,021.4,18.0,0001.5,0014.11,0009.38,0008.96
2024-03-27 02:55:00,SystemResetWarning,0822.4,4.99,000.00,019.6,018.6,000.0,028.4,021.3,18.1,0001.6,0014.19,0009.36,0008.92
2024-03-27 02:56:00,SystemResetWarning,0822.5,5.00,000.00,019.6,018.6,000.0,028.4,021.3,18.1,0001.4,0013.92,0009.33,0008.87
2024-03-27 02:57:00,SystemResetWarning,0822.5,4.99,000.00,019.6,018.6,000.0,028.4,021.3,18.2,0001.0,0014.39,0009.31,0008.83
2024-03-27 02:58:00,SystemResetWarning,0822.5,5.00,000.00,019.6,018.6,000.0,028.3,021.3,18.2,0001.4,0015.41,0009.25,0008.78
2024-03-27 02:59:00,SystemResetWarning,0823.0,5.00,000.00,019.5,018.6,000.0,028.3,021.3,18.1,0000.9,0015.05,0009.20,0008.73
